#timestamp,LO_Frequency,Hit,StdDev 
1552208415.2,286047004.3,N
1552208435.1,286047001.8,N
1552208436.0,286047001.8,N
1552208455.8,286047002.2,N
1552208475.6,286047002.7,N
1552208495.5,286047001.2,N
1552208515.3,286046999.7,N
1552208535.1,286046999.7,N
1552208555.9,286047002.8,N
1552208575.7,286047002.5,N
1552208595.6,286047001.6,N
1552208615.4,286047000.1,N
1552208635.2,286047000.1,N
1552208655.1,286047000.6,N
1552208656.0,286047000.6,N
1552208675.8,286047002.1,N
1552208695.6,286047002.3,N
1552208715.8,286047002.6,N
1552208735.6,286047001.4,N
1552208755.5,286047002.2,N
1552208775.3,286047004.4,Y
1552208795.2,286047002.7,P
1552208815.9,286046998.1,N
1552208835.7,286046998.6,N
1552208855.6,286047002.7,N
1552208875.4,286046999.7,N
1552208895.2,286047002.1,N
1552208915.1,286047001.5,N
1552208916.0,286047001.5,N
1552208935.8,286047002.2,N
1552208955.7,286047001.9,N
1552208975.5,286047002.3,N
1552208995.3,286047001.2,N
1552209015.2,286046999.6,N
1552209035.0,286046996.9,N
1552209035.9,286046996.9,N
1552209055.8,286046999.3,N
1552209075.6,286046998.8,N
1552209095.4,286046998.2,N
1552209115.3,286046998.8,N
1552209135.1,286047000.5,N
1552209155.8,286047001.8,N
1552209175.7,286047002.0,N
1552209195.5,286047000.9,N
1552209215.4,286047000.9,N
1552209235.2,286046999.8,N
1552209255.3,286046999.9,N
1552209275.1,286046998.6,N
1552209295.9,286046997.7,N
1552209315.7,286046997.6,N
1552209335.5,286046995.2,N
1552209355.4,286046996.3,N
1552209375.2,286046998.0,N
1552209425.1,286046998.0,E
1552209435.9,286046997.4,N
1552209455.7,286046999.5,P
1552209475.6,286046998.7,N
1552209495.4,286047001.1,N
1552209515.2,286047000.5,N
1552209535.1,286047001.2,N
1552209536.0,286047001.2,N
1552209555.8,286046998.8,N
1552209575.6,286047000.5,N
1552209595.5,286047002.3,N
1552209615.3,286047000.1,N
1552209635.2,286047004.0,N
1552209655.9,286047003.1,N
1552209675.7,286047004.1,N
1552209695.6,286047002.7,N
1552209715.4,286047005.6,N
1552209735.2,286047002.9,N
1552209755.1,286047002.8,N
1552209756.0,286047002.8,N
1552209775.8,286047000.5,N
1552209795.7,286047002.7,N
1552209815.5,286047000.9,N
1552209835.3,286047000.0,N
1552209855.2,286047004.4,N
1552209875.9,286047004.4,N
1552209895.7,286047002.6,N
1552209915.6,286047003.8,N
1552209935.4,286047002.6,N
1552209955.3,286047001.7,N
1552209975.1,286047005.5,N
1552209976.0,286047005.5,N
1552209995.8,286047003.2,N
1552210015.7,286047002.1,N
1552210035.5,286047000.1,N
1552210055.3,286047002.3,N
1552210075.2,286047003.2,N
1552210095.0,286047006.0,Y
1552210095.9,286047006.0,P
1552210115.8,286047002.2,N
1552210135.6,286047002.8,N
1552210155.4,286047000.5,N
1552210175.3,286047000.5,N
1552210195.1,286047001.2,N
1552210215.9,286046998.4,N
1552210235.7,286047000.6,N
1552210255.5,286047000.6,N
1552210275.4,286047002.0,N
1552210295.2,286047002.5,N
1552210315.0,286047001.6,N
1552210315.9,286047001.6,N
1552210335.8,286047002.0,N
1552210355.6,286047002.6,N
1552210375.5,286047002.6,N
1552210395.3,286047004.1,N
1552210415.1,286047002.6,N
1552210435.9,286047005.5,Y
1552210455.7,286047002.2,P
1552210475.6,286047000.6,P
1552210495.4,286046999.0,N
1552210515.2,286047000.5,N
1552210535.1,286046998.6,N
1552210536.0,286046998.6,N
1552210555.8,286046998.6,N
1552210575.6,286047000.9,N
1552210595.5,286047001.1,N
1552210615.3,286046997.4,N
1552210635.2,286046995.0,Y
1552210655.9,286046995.0,P
1552210675.7,286046994.9,N
1552210695.6,286046995.9,N
1552210715.4,286046995.8,N
1552210735.3,286046995.3,N
1552210755.1,286046995.6,N
1552210756.0,286046995.6,N
1552210775.8,286046995.6,N
1552210795.7,286046995.2,Y
1552210815.5,286047000.6,P
1552210835.4,286047002.1,N
1552210855.2,286047003.5,N
1552210875.0,286047004.3,N
1552210875.9,286047004.3,N
1552210895.8,286047003.5,N
1552210915.6,286047005.4,N
1552210935.5,286047003.6,N
1552210955.3,286047003.6,N
1552210975.1,286047004.1,N
1552210995.9,286047006.0,N
1552211015.7,286047003.3,N
1552211035.1,286046999.8,N
1552211036.0,286046999.8,N
1552211055.8,286047002.5,N
1552211075.6,286047002.3,N
1552211095.5,286047001.4,N
1552211115.3,286047002.5,N
1552211135.2,286046998.3,N
1552211155.9,286047000.2,N
1552211175.7,286046998.6,N
1552211195.6,286047000.8,N
1552211215.4,286047000.5,N
1552211235.2,286047002.3,N
1552211255.1,286047001.8,N
1552211256.0,286047001.8,N
1552211275.8,286047004.1,N
1552211295.7,286047003.7,N
1552211315.5,286047004.1,N
1552211335.3,286047001.8,N
1552211355.2,286046999.9,N
1552211375.0,286047000.0,N
1552211375.9,286047000.0,N
1552211395.7,286047002.5,N
1552211415.6,286047001.4,N
1552211435.4,286047003.9,N
1552211455.3,286047005.6,N
1552211475.1,286047005.2,N
1552211476.0,286047005.2,N
1552211495.8,286047002.9,N
1552211515.7,286047003.1,N
1552211535.5,286047001.6,N
1552211555.3,286047001.3,N
1552211575.2,286046999.8,N
1552211595.0,286047002.6,N
1552211595.9,286047002.6,N
1552211615.8,286047001.3,N
1552211635.6,286047004.0,N
1552211655.4,286047003.9,N
1552211675.3,286047003.0,N
1552211695.1,286047003.6,N
1552211715.9,286047002.9,N
1552211735.7,286047005.4,Y
1552211755.5,286046999.8,P
1552211775.4,286047001.0,N
1552211795.2,286047000.5,N
1552211815.1,286046998.4,N
1552211816.0,286046998.4,N
1552211835.8,286046999.1,N
1552211855.6,286046996.6,N
1552211875.5,286046996.9,N
1552211895.3,286046999.2,N
1552211915.1,286047000.9,N
1552211935.9,286046999.7,N
1552211955.7,286046999.7,N
1552211975.6,286047000.1,N
1552211995.4,286046999.8,N
